Location: Newark
(20.0000°S, 47.0000°E)
Time: 18:25:49
(UTC+00:00)

N. Korean satellite - Pass Details

Date: 26 March 2019
Orbit: 458 x 508 km, 97.2° (Epoch: 25 April)

Event Time Altitude Azimuth Distance (km) Brightness Sun altitude
Rises 01:41:54 0° 43° (NE) 2,583 10.8 -18.5°
Reaches altitude 10° 01:44:29 10° 63° (ENE) 1,714 10.2 -17.9°
Maximum altitude 01:46:59 17° 106° (ESE) 1,325 9.8 -17.3°
Drops below altitude 10° 01:49:30 10° 148° (SSE) 1,735 9.8 -16.8°
Sets 01:52:08 0° 168° (SSE) 2,630 10.5 -16.1°
